Location: Hurecourt
(47.9030°N, 6.0653°E)
Time: 08:27:22
(UTC+00:00)

Cosmos 921 Rocket - Pass Details

Date: 14 July 2020
Orbit: 572 x 631 km, 75.8° (Epoch: 14 August)

Event Time Altitude Azimuth Distance (km) Brightness Sun altitude
Rises 02:05:48 0° 338° (NNW) 2,902 7.0 -13.3°
Reaches altitude 10° 02:08:05 10° 336° (NNW) 1,982 6.1 -13.1°
Maximum altitude 02:12:29 70° 253° (WSW) 647 3.0 -12.7°
Drops below altitude 10° 02:16:45 10° 170° (S) 1,929 5.2 -12.3°
Enters shadow 02:17:11 - 170° (S) 2,101 5.4 -12.2°
